Dewpoint
3 3 3 3 3 2 2 2 2 3 5 10 13 13 12 13 12 11 11 11 10 9 -4 -3 -1 -1 -3 -5 -7 -11 -12 -14 -15 -16 -18 -19 -20 -18 -15 -14 -15 -21 -15
2 2 2 2 3 3 2 2 4 5 7 10 12 12 12 12 12 11 11 10 8 -2 -3 -1 0 -1 -1 -3 -4 -7 -10 -13 -15 -17 -19 -19 -20 -16 -20 -21 -22 -22 -22
-1 0 1 2 3 3 2 4 5 7 10 10 12 12 12 12 11 11 10 7 1 -3 -2 0 0 -0 -1 -1 -2 -5 -9 -13 -17 -19 -20 -18 -16 -21 -21 -21 -20 -19 -20
-1 -2 -0 0 3 2 3 5 8 9 9 11 12 11 11 11 10 9 8 6 -3 -2 0 0 -0 -1 -1 -1 -2 -5 -8 -14 -18 -20 -21 -21 -21 -18 -15 -18 -18 -19 -19
-1 -2 -3 -1 2 3 3 5 8 9 12 13 12 12 10 10 9 8 8 -3 -3 -1 -0 -0 -1 -1 -1 -1 -3 -5 -10 -16 -20 -21 -20 -21 -21 -20 -18 -16 -17 -17 -17
1 0 1 -0 2 3 4 5 6 10 13 11 11 12 10 9 8 7 -1 -3 -2 -1 -0 -1 -2 -1 -1 -2 -3 -7 -12 -18 -20 -20 -20 -20 -19 -19 -18 -13 -13 -13 -14
-1 0 2 2 2 2 3 5 5 8 12 11 10 11 10 9 8 6 -3 -3 -2 -1 -1 -2 -2 -2 -2 -2 -4 -9 -15 -19 -19 -19 -19 -18 -18 -18 -18 -17 -14 -12 -13
-4 0 1 2 2 2 3 4 5 7 12 11 12 10 9 9 8 2 -3 -3 -2 -1 -1 -2 -2 -2 -2 -3 -6 -12 -17 -18 -18 -18 -17 -17 -17 -17 -17 -16 -14 -13 -13
-3 -3 -0 2 2 2 3 4 7 9 10 11 11 10 9 9 5 -3 -3 -3 -3 -2 -2 -3 -2 -2 -3 -5 -9 -15 -17 -17 -17 -16 -15 -15 -16 -16 -16 -16 -16 -13 -12
-1 -4 -1 2 3 3 4 7 9 9 10 11 10 10 10 6 -2 -3 -3 -4 -3 -3 -3 -3 -3 -3 -4 -7 -12 -16 -16 -16 -15 -14 -14 -15 -16 -17 -17 -17 -16 -14 -11
1 -0 -2 2 4 5 7 9 10 11 10 10 10 9 5 -2 -3 -3 -3 -4 -3 -3 -3 -3 -3 -4 -7 -11 -14 -15 -15 -14 -14 -14 -15 -16 -18 -19 -20 -18 -15 -13 -11
2 2 1 2 5 8 9 11 11 11 10 10 7 4 -2 -2 -2 -3 -4 -4 -4 -4 -3 -3 -4 -6 -10 -14 -15 -14 -14 -14 -14 -15 -17 -19 -21 -23 -22 -19 -16 -13 -11
4 4 4 5 6 9 10 11 11 10 9 6 3 -1 -2 -2 -2 -4 -4 -4 -4 -4 -3 -4 -6 -9 -13 -15 -15 -15 -15 -14 -15 -17 -19 -21 -21 -20 -18 -17 -13 -10 -9
4 4 5 6 8 10 11 11 10 9 7 3 0 -0 -2 -3 -4 -4 -4 -4 -4 -3 -4 -6 -8 -11 -15 -16 -16 -15 -14 -15 -18 -20 -19 -19 -17 -16 -14 -10 -9 -9 -9
4 4 5 7 8 9 10 9 8 6 4 1 -0 -2 -3 -4 -4 -4 -5 -4 -4 -4 -6 -8 -11 -15 -18 -19 -17 -14 -16 -19 -21 -20 -18 -16 -14 -13 -10 -9 -9 -9 -9
4 3 5 6 7 7 7 6 5 3 2 0 -2 -3 -4 -5 -5 -5 -5 -4 -5 -6 -8 -11 -15 -19 -21 -17 -14 -17 -21 -22 -18 -17 -17 -14 -12 -11 -10 -10 -9 -8 -8
4 4 5 5 6 5 4 3 2 0 -2 -3 -4 -5 -5 -5 -6 -5 -5 -5 -6 -7 -10 -15 -20 -23 -17 -14 -17 -22 -24 -21 -19 -16 -13 -11 -10 -12 -11 -11 -9 -8 -9
4 4 4 3 2 1 1 0 -1 -3 -4 -4 -5 -6 -6 -6 -5 -5 -5 -5 -7 -11 -16 -21 -24 -17 -14 -18 -23 -25 -25 -21 -15 -12 -11 -10 -11 -10 -9 -8 -8 -9 -11
4 4 3 2 1 1 -1 -1 -3 -3 -5 -5 -6 -6 -6 -6 -5 -5 -5 -7 -11 -15 -22 -23 -15 -15 -20 -24 -26 -25 -22 -14 -11 -12 -10 -10 -9 -9 -9 -9 -10 -10 -11
4 4 3 2 1 -0 -1 -1 -3 -4 -5 -6 -6 -6 -6 -5 -4 -5 -7 -10 -14 -24 -21 -14 -16 -22 -25 -26 -26 -22 -12 -10 -10 -9 -9 -10 -9 -10 -9 -10 -10 -10 -13
4 4 3 1 0 -0 -1 -2 -3 -5 -5 -6 -6 -5 -5 -4 -5 -7 -10 -16 -23 -17 -14 -17 -23 -26 -26 -26 -25 -22 -10 -9 -9 -9 -9 -10 -10 -9 -10 -11 -11 -12 -10
3 3 2 1 -0 -1 -2 -2 -4 -5 -6 -6 -5 -4 -4 -5 -7 -11 -18 -21 -15 -14 -18 -24 -27 -27 -27 -25 -23 -15 -9 -9 -9 -9 -10 -10 -10 -11 -11 -13 -12 -11 -11
2 2 2 0 -2 -3 -2 -2 -4 -5 -5 -4 -3 -4 -5 -8 -12 -20 -18 -13 -14 -20 -25 -27 -26 -26 -26 -24 -19 -13 -10 -10 -10 -11 -10 -10 -11 -16 -17 -14 -13 -13 -12
1 0 -0 -2 -3 -4 -3 -3 -4 -4 -3 -3 -4 -6 -9 -14 -20 -16 -13 -15 -20 -25 -26 -26 -25 -25 -22 -20 -13 -11 -11 -10 -11 -11 -11 -14 -16 -17 -14 -13 -13 -12 -12
-1 -1 -1 -2 -3 -4 -4 -4 -4 -4 -4 -5 -7 -10 -16 -19 -14 -12 -15 -20 -25 -26 -25 -24 -23 -20 -17 -14 -10 -11 -10 -11 -11 -11 -14 -16 -17 -15 -13 -13 -12 -12 -11
-2 -2 -2 -3 -4 -4 -4 -4 -4 -5 -6 -7 -11 -17 -17 -14 -12 -14 -19 -24 -26 -25 -24 -24 -22 -22 -19 -13 -11 -10 -11 -11 -12 -13 -15 -16 -16 -13 -12 -12 -12 -11 -11
Wind_Speed
29 27 26 24 23 21 22 26 25 25 27 30 29 26 24 23 22 20 19 15 12 10 10 6 3 5 9 11 13 13 15 17 19 17 12 7 1 8 9 9 12 18 18
31 31 29 28 25 21 24 26 27 26 29 30 31 25 24 24 24 24 21 17 13 13 9 5 4 7 10 12 14 15 17 19 20 20 13 7 6 2 13 15 16 19 17
39 35 33 27 26 26 25 26 26 28 30 31 31 24 24 25 26 25 21 19 17 14 9 5 5 7 10 13 16 17 17 17 19 19 14 7 4 24 1 21 10 26 24
40 39 35 30 25 26 25 26 26 28 29 31 27 25 25 26 26 24 22 21 19 14 9 6 4 7 11 14 16 18 19 18 17 17 16 13 13 8 13 13 28 29 36
35 37 38 31 26 27 28 28 26 27 29 27 25 28 23 26 24 26 25 24 19 14 9 5 5 8 11 14 16 18 18 18 18 18 17 16 16 16 17 25 32 38 36
28 29 31 33 29 28 29 28 27 28 31 29 26 27 22 26 28 28 28 24 18 13 8 6 7 9 12 14 16 17 18 18 18 18 18 18 17 19 20 20 29 30 28
23 22 27 33 31 30 32 30 29 30 34 30 29 25 23 27 27 29 28 23 18 12 8 8 8 10 13 15 17 18 18 18 18 18 18 20 21 23 24 28 30 30 36
24 20 22 31 31 32 34 32 30 31 35 34 32 25 25 26 27 27 25 20 15 11 9 9 9 12 14 16 17 18 18 18 19 19 20 21 22 23 25 26 29 38 25
26 24 19 28 31 34 35 34 31 32 34 34 28 28 27 26 28 28 23 18 14 11 10 10 11 13 15 17 18 18 18 19 19 20 21 23 24 25 26 26 28 27 31
23 24 22 24 31 35 36 32 30 33 33 30 29 28 27 27 28 25 21 16 13 11 10 11 12 14 16 18 18 19 19 19 20 22 23 25 26 27 27 27 27 28 28
24 23 25 24 30 37 36 33 32 34 33 31 29 29 29 29 26 22 18 15 13 11 10 11 13 15 16 18 18 18 19 20 22 24 26 27 28 29 29 28 27 29 29
21 20 28 27 31 35 34 35 37 35 33 30 29 28 29 27 24 20 17 14 13 11 10 12 13 15 17 18 18 19 21 23 25 26 28 29 29 29 27 26 26 27 27
13 17 25 27 32 37 37 38 36 34 31 29 29 28 27 25 21 18 16 14 11 10 11 12 13 16 17 19 19 21 23 25 26 27 29 29 28 27 25 23 24 24 26
9 16 23 30 36 38 38 37 35 33 30 29 28 26 24 21 19 16 14 11 10 10 11 12 15 17 18 19 21 23 25 26 27 28 28 26 25 24 23 23 23 23 28
12 17 24 33 37 37 36 34 33 31 30 29 27 24 22 19 17 15 12 10 8 9 11 13 16 17 18 21 23 25 25 27 28 28 26 24 24 22 20 22 26 28 27
15 19 27 35 36 36 35 34 32 31 28 26 24 22 20 18 15 12 9 8 8 9 12 14 16 18 20 22 24 25 25 26 26 27 25 25 24 24 24 24 22 22 30
19 22 31 35 35 34 34 34 31 29 26 24 22 20 18 16 12 9 7 6 8 10 13 15 17 19 22 23 24 25 25 25 25 25 25 25 25 26 25 26 27 26 31
22 27 33 34 33 32 31 30 28 27 25 22 21 19 15 12 9 7 5 6 9 11 13 16 18 21 23 24 25 25 24 24 23 22 23 25 28 25 27 31 30 34 36
22 28 31 32 32 31 29 28 26 25 23 21 18 15 12 9 6 4 5 7 9 12 14 17 20 21 22 24 24 24 23 22 23 24 23 27 24 27 27 28 35 31 31
20 26 30 31 30 31 29 28 27 23 21 18 16 13 10 6 3 4 6 8 10 13 16 18 19 21 22 23 23 21 20 22 24 23 23 26 26 27 25 30 30 31 32
22 26 30 32 32 30 28 26 24 22 19 16 13 10 6 3 3 5 7 9 12 14 16 17 18 20 22 23 23 21 18 21 24 24 24 27 28 26 28 27 27 27 28
28 31 34 33 30 28 27 25 22 19 16 13 10 7 3 2 4 6 8 11 13 15 17 18 19 21 23 24 23 19 18 20 23 25 28 30 28 28 27 25 23 23 25
28 30 34 34 30 26 20 20 18 16 14 11 7 4 2 2 4 7 9 12 14 16 18 20 23 25 25 24 21 20 21 21 23 26 26 28 29 29 26 22 22 24 25
32 34 34 32 29 22 17 13 16 14 10 7 4 3 1 3 5 9 11 13 14 16 19 22 24 25 25 24 23 24 24 26 27 27 31 29 26 23 21 22 25 26 25
34 31 29 27 25 21 18 16 14 10 7 5 3 2 2 4 7 9 12 13 15 18 20 22 22 23 23 21 21 21 23 25 25 26 27 27 25 24 24 26 28 28 27
29 25 23 22 22 19 17 14 11 8 5 3 2 1 4 6 9 10 11 13 15 17 19 19 20 21 20 20 19 20 23 22 23 24 25 25 24 24 26 29 32 30 29
Wind_Direction
268 260 254 260 263 262 257 254 235 220 210 204 200 206 204 202 194 197 198 199 198 211 201 221 270 326 343 351 358 354 349 347 352 356 15 353 357 288 276 287 298 308 295
265 261 255 257 260 264 260 244 228 217 207 206 202 199 205 198 199 194 188 192 194 195 201 221 295 332 352 358 356 354 353 354 356 4 5 357 340 193 296 314 299 297 307
260 258 255 254 253 258 253 228 219 213 205 205 193 191 197 191 189 186 185 181 194 194 201 232 294 338 351 350 352 353 354 357 355 359 11 352 321 314 254 308 304 313 316
254 253 255 251 247 247 233 221 214 210 210 203 194 205 200 200 198 198 187 194 187 196 206 239 298 331 340 347 349 350 348 350 352 351 348 342 325 317 313 312 312 318 321
252 250 247 240 240 235 224 215 212 211 207 203 202 203 213 201 196 189 194 189 189 196 213 245 292 320 335 341 345 344 343 344 344 342 339 335 328 322 311 309 314 316 323
249 257 248 234 235 224 214 210 211 208 203 205 204 205 207 194 190 192 189 188 192 201 220 252 286 314 329 337 338 337 339 338 337 335 333 332 330 322 316 304 312 312 322
268 261 244 228 221 214 208 206 207 206 199 201 205 197 197 194 195 194 191 192 196 207 228 256 286 311 324 330 332 333 333 332 330 329 329 327 324 318 315 313 311 309 316
270 262 243 223 214 207 204 202 203 200 194 198 198 196 195 196 197 194 193 195 201 216 239 262 288 308 319 324 327 329 329 328 327 325 324 320 318 316 315 312 314 315 310
273 256 253 220 212 204 201 200 195 190 190 193 193 195 195 198 193 191 194 201 210 228 247 268 292 306 315 320 324 326 325 324 322 320 317 317 317 314 312 311 310 309 307
275 251 248 223 210 203 197 191 189 182 189 188 192 188 188 189 191 195 201 208 219 235 254 275 293 305 314 319 324 323 321 319 317 317 318 316 314 314 312 309 306 302 298
300 250 226 219 211 198 190 183 180 183 187 189 187 186 183 185 192 199 205 214 226 241 258 278 294 306 315 320 321 318 317 319 319 317 314 315 315 313 311 307 301 296 295
311 248 218 208 200 191 182 178 178 183 185 185 185 184 183 186 193 199 207 217 230 244 265 283 299 310 317 318 316 318 320 319 316 316 317 317 315 313 312 308 301 296 296
293 224 201 191 185 181 179 177 178 181 182 182 182 182 185 187 191 199 209 218 232 252 274 291 305 314 317 316 318 321 319 317 318 319 319 320 319 318 316 310 307 306 301
237 204 190 181 179 177 177 175 176 178 177 178 180 183 184 186 191 200 209 220 241 265 284 299 310 316 316 318 320 319 318 319 318 319 320 321 321 319 317 315 309 304 300
216 197 184 174 171 171 172 172 172 172 175 176 178 180 183 187 193 201 211 229 253 276 296 308 315 315 317 319 320 321 320 318 316 317 321 319 318 315 308 307 303 304 303
206 190 178 167 165 166 166 167 167 169 171 174 178 181 185 189 194 203 217 241 270 293 306 311 313 316 318 319 321 321 319 316 314 317 319 319 318 319 315 306 307 303 302
193 186 174 167 166 165 166 164 163 164 168 175 177 181 186 189 194 207 228 260 289 303 308 313 315 317 320 322 321 321 317 315 315 318 320 319 320 321 318 324 316 310 309
185 176 171 166 163 162 161 161 163 165 168 174 178 180 184 189 197 212 244 286 298 307 312 314 317 321 322 323 322 321 319 315 317 321 318 318 325 324 324 316 313 310 309
179 173 173 168 163 162 162 163 161 167 172 172 175 178 183 189 195 230 280 293 306 312 314 319 321 324 325 323 325 324 321 319 321 323 321 326 320 319 320 314 314 313 309
176 174 172 167 164 163 165 166 165 166 168 171 173 174 177 183 212 269 294 307 311 316 319 324 326 326 325 326 328 327 323 324 326 323 319 322 321 321 319 316 314 308 319
166 168 168 168 166 163 164 164 162 165 166 166 167 168 165 189 264 300 308 312 316 320 325 325 327 328 327 329 332 330 328 324 324 318 319 321 326 321 317 315 309 316 316
158 164 163 161 160 161 164 160 160 158 160 162 158 156 178 257 298 307 313 319 325 325 326 330 330 330 332 334 334 333 327 327 320 320 320 326 319 317 318 319 320 315 314
152 156 156 152 151 155 166 157 154 156 155 152 157 177 221 281 304 316 325 327 327 331 334 334 333 334 334 335 336 341 337 329 324 320 321 313 321 324 324 328 328 329 328
145 149 148 145 142 147 150 153 147 146 151 160 169 181 230 301 322 330 329 331 335 336 336 336 334 333 334 339 345 341 334 329 326 325 315 322 324 327 331 335 340 339 336
141 145 146 143 141 143 142 140 141 147 157 164 172 192 302 327 328 329 335 338 340 340 337 334 331 331 331 335 331 330 327 323 320 318 324 330 335 337 340 342 343 342 340
139 142 140 140 139 143 141 141 146 151 159 163 172 302 321 328 334 336 338 336 335 335 335 333 332 330 327 326 327 330 318 324 327 327 331 335 338 339 340 341 341 342 342
Height
1460 1461 1463 1465 1468 1469 1471 1472 1473 1475 1478 1481 1487 1494 1498 1502 1505 1508 1510 1513 1515 1516 1518 1519 1520 1520 1518 1517 1514 1512 1509 1505 1501 1500 1499 1495 1495 1494 1495 1494 1493 1491 1490
1451 1454 1456 1458 1461 1463 1464 1465 1467 1470 1473 1477 1481 1489 1495 1499 1502 1504 1507 1510 1512 1514 1516 1517 1517 1517 1515 1514 1512 1510 1507 1502 1500 1497 1494 1494 1494 1493 1492 1490 1490 1488 1487
1442 1444 1447 1450 1453 1456 1457 1459 1462 1466 1470 1473 1477 1484 1490 1494 1498 1501 1504 1507 1510 1512 1513 1514 1515 1515 1513 1512 1510 1507 1506 1502 1499 1496 1497 1495 1494 1490 1488 1488 1484 1484 1481
1431 1435 1438 1442 1444 1448 1451 1455 1458 1462 1466 1471 1476 1480 1485 1489 1494 1499 1502 1505 1508 1510 1511 1512 1513 1512 1511 1509 1507 1504 1502 1500 1498 1496 1495 1494 1493 1490 1482 1479 1477 1475 1472
1420 1424 1428 1434 1438 1441 1446 1451 1455 1459 1463 1469 1473 1477 1482 1486 1491 1495 1499 1502 1505 1507 1509 1509 1510 1510 1509 1507 1504 1502 1500 1497 1496 1494 1493 1492 1490 1488 1484 1474 1470 1467 1464
1414 1416 1419 1425 1429 1435 1441 1446 1451 1455 1460 1466 1470 1474 1479 1484 1487 1492 1496 1499 1502 1504 1506 1507 1508 1507 1506 1504 1502 1500 1497 1495 1493 1492 1490 1488 1487 1484 1480 1474 1466 1461 1456
1409 1410 1411 1415 1420 1426 1433 1440 1446 1451 1457 1463 1468 1471 1476 1482 1486 1489 1493 1496 1498 1500 1502 1504 1505 1504 1503 1501 1500 1498 1495 1493 1491 1490 1487 1485 1483 1481 1477 1471 1464 1455 1450
1403 1404 1405 1408 1413 1418 1425 1433 1439 1445 1452 1459 1465 1470 1475 1480 1484 1489 1492 1494 1495 1498 1500 1502 1502 1501 1500 1499 1497 1494 1492 1490 1488 1486 1484 1483 1480 1476 1472 1468 1462 1448 1445
1397 1399 1400 1403 1407 1412 1419 1426 1434 1441 1449 1455 1461 1467 1473 1477 1482 1487 1489 1491 1492 1495 1497 1499 1498 1497 1497 1495 1493 1491 1489 1487 1485 1483 1480 1478 1475 1471 1467 1464 1460 1455 1439
1390 1393 1395 1398 1403 1409 1415 1424 1432 1440 1447 1454 1459 1464 1470 1475 1481 1485 1487 1489 1490 1492 1494 1495 1495 1494 1493 1492 1490 1488 1486 1484 1481 1478 1475 1472 1468 1465 1462 1458 1455 1451 1445
1385 1386 1389 1394 1400 1406 1413 1421 1430 1438 1446 1452 1458 1463 1467 1472 1478 1482 1485 1487 1488 1490 1491 1492 1492 1490 1490 1488 1487 1485 1482 1479 1477 1473 1469 1466 1462 1459 1455 1451 1448 1444 1440
1382 1382 1385 1388 1396 1406 1413 1420 1427 1435 1444 1452 1457 1462 1466 1470 1475 1479 1483 1485 1486 1487 1488 1489 1488 1487 1486 1484 1482 1480 1477 1474 1471 1467 1463 1460 1456 1452 1448 1444 1440 1437 1433
1382 1382 1383 1388 1395 1403 1411 1418 1426 1434 1442 1450 1457 1462 1466 1469 1473 1477 1480 1482 1483 1484 1485 1485 1485 1484 1482 1480 1477 1475 1472 1468 1465 1461 1457 1453 1449 1445 1441 1438 1434 1430 1425
1385 1384 1385 1387 1395 1403 1410 1417 1425 1433 1441 1449 1456 1461 1466 1468 1471 1474 1477 1478 1480 1481 1482 1482 1481 1480 1478 1476 1473 1470 1466 1462 1459 1455 1451 1447 1443 1439 1436 1432 1428 1424 1419
1385 1386 1387 1389 1396 1404 1411 1419 1426 1433 1441 1448 1455 1460 1465 1467 1469 1472 1474 1475 1477 1478 1479 1478 1478 1476 1474 1471 1468 1464 1460 1456 1453 1449 1445 1441 1437 1434 1431 1427 1423 1418 1412
1383 1386 1389 1393 1400 1406 1413 1420 1427 1435 1441 1449 1455 1459 1463 1465 1467 1470 1471 1472 1474 1476 1476 1475 1474 1472 1469 1466 1463 1459 1454 1451 1446 1442 1438 1435 1431 1427 1423 1420 1416 1412 1405
1382 1386 1391 1397 1403 1409 1416 1422 1430 1437 1443 1449 1454 1458 1461 1463 1465 1467 1469 1470 1472 1473 1472 1471 1470 1467 1464 1461 1457 1453 1449 1444 1440 1436 1432 1428 1425 1421 1415 1411 1406 1402 1398
1383 1388 1394 1400 1407 1414 1420 1426 1432 1437 1444 1450 1453 1457 1460 1462 1464 1465 1467 1469 1470 1470 1469 1467 1465 1462 1459 1455 1451 1447 1443 1439 1435 1431 1427 1423 1418 1414 1409 1404 1398 1394 1388
1385 1390 1398 1404 1410 1416 1422 1428 1433 1440 1445 1449 1453 1456 1459 1460 1462 1464 1466 1467 1467 1466 1466 1464 1460 1457 1454 1450 1446 1442 1437 1433 1429 1426 1422 1417 1413 1409 1405 1398 1391 1386 1380
1387 1394 1401 1407 1413 1419 1424 1429 1434 1441 1446 1449 1452 1455 1458 1460 1461 1463 1464 1464 1464 1463 1462 1459 1456 1452 1449 1445 1441 1437 1432 1427 1424 1420 1416 1412 1408 1403 1399 1393 1386 1378 1373
1390 1397 1404 1409 1415 1419 1425 1431 1437 1442 1446 1449 1452 1455 1457 1459 1460 1461 1462 1462 1461 1460 1458 1456 1452 1449 1444 1440 1435 1431 1428 1424 1420 1416 1411 1406 1402 1398 1393 1387 1380 1374 1369
1392 1398 1404 1411 1418 1423 1428 1433 1438 1442 1446 1450 1453 1455 1457 1458 1459 1459 1460 1459 1458 1456 1454 1451 1448 1444 1440 1435 1430 1426 1424 1421 1416 1410 1406 1400 1397 1391 1384 1379 1373 1369 1363
1397 1404 1408 1413 1421 1427 1433 1434 1438 1443 1447 1451 1453 1455 1456 1457 1458 1458 1458 1457 1455 1452 1449 1446 1442 1438 1434 1430 1425 1421 1418 1415 1411 1407 1402 1395 1389 1383 1378 1373 1368 1363 1357
1401 1408 1413 1418 1423 1430 1434 1438 1441 1446 1449 1451 1453 1455 1456 1456 1457 1457 1455 1453 1451 1448 1445 1441 1437 1433 1428 1424 1420 1417 1414 1410 1406 1401 1394 1389 1384 1379 1374 1369 1364 1358 1353
1407 1413 1417 1421 1425 1431 1436 1441 1445 1448 1450 1452 1453 1454 1455 1456 1456 1454 1452 1450 1447 1444 1441 1437 1433 1428 1424 1421 1418 1415 1411 1407 1402 1396 1389 1384 1379 1374 1369 1365 1360 1354 1349
1413 1417 1421 1424 1429 1435 1439 1443 1447 1450 1451 1452 1453 1454 1455 1454 1453 1451 1450 1447 1445 1442 1438 1434 1430 1425 1421 1417 1414 1411 1406 1401 1395 1389 1385 1380 1376 1371 1366 1361 1355 1350 1345